QPF
0.00 0.00 0.00 0.00 0.00 0.00 0.00 0.00 0.00 0.00 0.00 0.00 0.00 0.00 0.00 0.00 0.00 0.00 0.00 0.00 0.00 0.00
0.00 0.00 0.00 0.00 0.00 0.00 0.00 0.00 0.00 0.00 0.00 0.00 0.00 0.00 0.00 0.00 0.00 0.00 0.00 0.00 0.00 0.00
0.00 0.00 0.00 0.00 0.00 0.00 0.00 0.00 0.00 0.00 0.00 0.00 0.01 0.00 0.00 0.00 0.00 0.00 0.00 0.00 0.00 0.00
0.00 0.00 0.00 0.00 0.00 0.00 0.00 0.00 0.00 0.00 0.00 0.01 0.00 0.00 0.01 0.00 0.00 0.00 0.00 0.00 0.00 0.00
0.00 0.00 0.00 0.00 0.00 0.00 0.00 0.00 0.00 0.00 0.00 0.00 0.00 0.01 0.01 0.00 0.00 0.00 0.00 0.00 0.00 0.00
0.00 0.00 0.00 0.00 0.00 0.00 0.00 0.00 0.00 0.00 0.00 0.00 0.00 0.00 0.00 0.00 0.00 0.00 0.00 0.00 0.00 0.00
0.00 0.00 0.00 0.00 0.00 0.00 0.00 0.00 0.00 0.00 0.00 0.00 0.00 0.00 0.00 0.00 0.00 0.00 0.00 0.00 0.00 0.00
0.00 0.00 0.00 0.00 0.00 0.00 0.00 0.00 0.00 0.00 0.00 0.00 0.00 0.00 0.00 0.00 0.00 0.00 0.00 0.00 0.00 0.00
0.00 0.00 0.00 0.00 0.00 0.00 0.00 0.00 0.00 0.00 0.00 0.00 0.00 0.00 0.00 0.00 0.00 0.00 0.00 0.00 0.00 0.00
0.00 0.00 0.00 0.00 0.00 0.00 0.00 0.00 0.00 0.01 0.00 0.00 0.00 0.00 0.00 0.00 0.00 0.00 0.00 0.00 0.00 0.00
0.00 0.00 0.00 0.00 0.00 0.00 0.00 0.00 0.00 0.00 0.00 0.00 0.00 0.00 0.00 0.00 0.00 0.00 0.00 0.00 0.00 0.00
0.00 0.00 0.00 0.00 0.00 0.00 0.00 0.00 0.00 0.00 0.00 0.00 0.00 0.00 0.00 0.00 0.00 0.00 0.00 0.00 0.00 0.00
0.00 0.00 0.00 0.00 0.00 0.00 0.00 0.00 0.00 0.00 0.00 0.00 0.00 0.00 0.00 0.00 0.00 0.00 0.00 0.00 0.00 0.00
0.00 0.00 0.00 0.00 0.00 0.00 0.00 0.00 0.00 0.00 0.00 0.00 0.00 0.00 0.00 0.00 0.00 0.00 0.00 0.00 0.00 0.00
MSLP
1025.12 1025.09 1025.21 1025.56 1025.61 1025.61 1025.46 1025.21 1025.07 1024.70 1024.30 1024.29 1024.64 1025.03 1025.27 1024.76 1024.46 1024.72 1024.60 1024.55 1024.46 1024.20
1025.32 1025.45 1025.71 1025.86 1025.83 1025.75 1025.61 1025.25 1024.86 1024.68 1024.49 1024.59 1024.90 1024.93 1024.38 1024.04 1024.20 1024.24 1024.36 1024.33 1024.20 1023.95
1025.26 1025.42 1025.65 1025.73 1025.81 1025.75 1025.52 1025.17 1024.80 1024.39 1024.40 1024.57 1025.06 1024.71 1024.01 1023.91 1023.83 1024.09 1024.15 1023.99 1023.88 1023.83
1024.99 1025.19 1025.41 1025.61 1025.65 1025.61 1025.47 1025.14 1024.80 1024.37 1024.08 1024.38 1024.43 1024.05 1023.82 1023.81 1023.68 1023.88 1023.80 1023.68 1023.55 1023.55
1024.72 1025.01 1025.26 1025.41 1025.41 1025.44 1025.24 1024.99 1024.67 1024.44 1024.19 1024.25 1024.03 1023.81 1023.51 1023.39 1023.38 1023.47 1023.44 1023.51 1023.49 1023.40
1024.50 1024.77 1024.96 1025.06 1025.13 1025.10 1024.91 1024.67 1024.39 1024.03 1023.83 1023.87 1023.67 1023.50 1023.37 1023.33 1023.38 1023.43 1023.52 1023.62 1023.56 1023.45
1024.21 1024.41 1024.60 1024.77 1024.79 1024.72 1024.58 1024.27 1023.93 1023.74 1023.62 1023.48 1023.35 1023.44 1023.53 1023.54 1023.52 1023.55 1023.60 1023.62 1023.54 1023.46
1023.96 1024.10 1024.19 1024.29 1024.30 1024.33 1024.23 1023.92 1023.62 1023.81 1023.63 1023.56 1023.54 1023.99 1024.18 1024.00 1023.82 1023.62 1023.60 1023.53 1023.46 1023.38
1023.64 1023.82 1023.90 1023.87 1023.93 1023.88 1023.65 1023.41 1023.12 1023.14 1023.46 1023.48 1023.69 1025.09 1025.05 1024.64 1024.07 1023.78 1023.57 1023.42 1023.37 1023.28
1023.39 1023.47 1023.39 1023.31 1023.29 1023.21 1023.13 1023.01 1022.87 1022.82 1023.13 1023.37 1023.80 1025.21 1025.21 1025.02 1024.33 1023.89 1023.61 1023.54 1023.37 1023.17
1023.04 1023.04 1022.91 1022.77 1022.77 1022.71 1022.72 1022.60 1022.52 1022.46 1022.77 1023.20 1024.22 1025.20 1025.12 1025.07 1024.10 1023.81 1023.65 1023.56 1023.43 1023.25
1022.90 1022.71 1022.50 1022.29 1022.34 1022.36 1022.32 1022.18 1022.07 1022.48 1022.76 1023.22 1023.87 1025.02 1025.06 1024.87 1024.18 1023.89 1023.73 1023.52 1023.31 1023.50
1022.45 1022.28 1022.06 1022.04 1021.97 1022.00 1022.04 1021.93 1022.07 1022.32 1022.79 1023.47 1023.82 1024.87 1024.93 1024.73 1024.13 1023.96 1023.69 1023.31 1023.12 1023.29
1022.13 1021.96 1021.84 1021.62 1021.58 1021.56 1021.51 1021.68 1022.05 1022.41 1022.79 1023.22 1023.75 1024.04 1024.66 1024.72 1024.36 1023.98 1023.72 1023.27 1022.97 1022.97
Thickness
5513 5506 5498 5488 5479 5471 5463 5458 5451 5445 5440 5432 5419 5406 5393 5383 5373 5357 5343 5328 5315 5303
5500 5492 5482 5472 5465 5457 5450 5445 5441 5434 5425 5414 5400 5389 5381 5369 5352 5336 5319 5305 5295 5288
5489 5480 5470 5462 5453 5445 5439 5434 5427 5420 5410 5397 5382 5370 5360 5347 5328 5311 5297 5289 5283 5277
5480 5470 5460 5451 5442 5433 5426 5419 5412 5405 5396 5381 5368 5355 5339 5321 5309 5295 5285 5278 5274 5270
5471 5460 5451 5441 5431 5422 5415 5407 5399 5390 5380 5365 5352 5338 5321 5306 5293 5283 5275 5269 5264 5262
5461 5451 5441 5431 5421 5412 5403 5394 5385 5376 5363 5349 5334 5316 5304 5292 5280 5271 5264 5258 5255 5252
5451 5441 5430 5420 5410 5401 5392 5383 5373 5360 5347 5331 5315 5300 5288 5276 5267 5260 5254 5250 5246 5242
5440 5431 5421 5411 5401 5389 5379 5369 5359 5343 5328 5310 5296 5282 5271 5262 5256 5251 5246 5242 5238 5234
5429 5419 5409 5400 5389 5379 5368 5357 5344 5328 5309 5295 5281 5261 5252 5247 5247 5243 5239 5236 5231 5226
5418 5409 5400 5391 5380 5370 5357 5344 5330 5312 5295 5281 5269 5249 5242 5237 5238 5235 5231 5227 5222 5218
5408 5399 5390 5381 5370 5359 5345 5330 5315 5301 5286 5272 5255 5240 5234 5229 5230 5228 5223 5218 5213 5209
5396 5388 5380 5370 5358 5345 5331 5317 5304 5287 5274 5260 5250 5233 5227 5223 5223 5220 5216 5211 5207 5199
5387 5378 5369 5359 5346 5332 5318 5305 5291 5277 5263 5248 5242 5228 5222 5217 5218 5213 5210 5207 5201 5195
5375 5367 5357 5347 5334 5321 5308 5294 5280 5266 5253 5244 5235 5228 5217 5211 5209 5207 5203 5201 5197 5190